TimeEDT,TemperatureF,Dew PointF,Humidity,Sea Level PressureIn,VisibilityMPH,Wind Direction,Wind SpeedMPH,Gust SpeedMPH,PrecipitationIn,Events,Conditions,WindDirDegrees,DateUTC
12:53 AM,37.9,28.9,70,29.99,10.0,NW,5.8,-,N/A,,Clear,320,2013-03-28 04:53:00
1:53 AM,36.0,28.0,73,29.99,10.0,WNW,4.6,-,N/A,,Clear,300,2013-03-28 05:53:00
2:53 AM,30.0,27.0,88,29.99,10.0,Calm,Calm,-,N/A,,Clear,0,2013-03-28 06:53:00
3:53 AM,30.0,27.0,88,29.98,10.0,Calm,Calm,-,N/A,,Clear,0,2013-03-28 07:53:00
4:53 AM,28.9,26.1,89,29.98,10.0,Calm,Calm,-,N/A,,Clear,0,2013-03-28 08:53:00
5:53 AM,26.1,24.1,92,29.99,10.0,Calm,Calm,-,N/A,,Clear,0,2013-03-28 09:53:00
6:53 AM,28.9,26.1,89,29.99,10.0,Calm,Calm,-,N/A,,Partly Cloudy,0,2013-03-28 10:53:00
7:53 AM,36.0,28.0,73,30.01,10.0,Calm,Calm,-,N/A,,Clear,0,2013-03-28 11:53:00
8:53 AM,42.1,28.9,60,30.01,10.0,NW,8.1,-,N/A,,Clear,310,2013-03-28 12:53:00
9:53 AM,44.1,28.0,53,30.01,10.0,NNW,11.5,24.2,N/A,,Partly Cloudy,340,2013-03-28 13:53:00
10:53 AM,46.0,27.0,47,30.02,10.0,NNW,10.4,17.3,N/A,,Mostly Cloudy,330,2013-03-28 14:53:00
11:53 AM,46.0,26.1,46,30.02,10.0,NNW,13.8,18.4,N/A,,Overcast,340,2013-03-28 15:53:00
12:53 PM,48.0,24.1,39,30.01,10.0,North,9.2,17.3,N/A,,Overcast,360,2013-03-28 16:53:00
1:53 PM,48.0,26.1,42,30.01,10.0,NNW,13.8,-,N/A,,Overcast,340,2013-03-28 17:53:00
2:53 PM,48.0,27.0,44,30.01,10.0,NW,11.5,-,N/A,,Overcast,310,2013-03-28 18:53:00
3:53 PM,48.9,26.1,41,30.01,10.0,NW,9.2,-,N/A,,Overcast,320,2013-03-28 19:53:00
4:53 PM,48.9,28.0,44,30.02,10.0,NW,10.4,-,N/A,,Overcast,320,2013-03-28 20:53:00
5:53 PM,48.0,28.0,46,30.04,10.0,NNW,6.9,-,N/A,,Overcast,330,2013-03-28 21:53:00
6:53 PM,48.0,27.0,44,30.06,10.0,NW,10.4,-,N/A,,Overcast,310,2013-03-28 22:53:00
7:53 PM,46.9,28.0,48,30.08,10.0,NNW,8.1,-,N/A,,Overcast,330,2013-03-28 23:53:00
8:53 PM,46.0,28.0,50,30.10,10.0,NNW,4.6,-,N/A,,Overcast,330,2013-03-29 00:53:00
9:53 PM,46.0,28.0,50,30.11,10.0,NW,6.9,-,N/A,,Overcast,320,2013-03-29 01:53:00
10:53 PM,46.0,28.0,50,30.11,10.0,NW,6.9,-,N/A,,Overcast,320,2013-03-29 02:53:00
11:53 PM,43.0,28.0,56,30.12,10.0,NW,3.5,-,N/A,,Scattered Clouds,310,2013-03-29 03:53:00